Retour au catalogue

FENGYUN 1C DEB

LostPO
NORAD 32333·DEBRIS·🇨🇳 China

Lancé May 10, 1999 depuis Taiyuan Satellite Launch Center

Loading…

Prochains Passages (prochaines 24 heures)

TLE

PériméSource: Space-Track

Époque: Sep 4, 2024, 06:33 UTC

1 32333U 99025CYA 24248.27354262  .00006123  00000-0  35484-2 0  9998
2 32333  97.8464  67.9104 0111536  40.4371 320.5024 14.06013960571657

Suivez FENGYUN 1C DEB en temps réel avec AllMySat

Download on the App Store